{"data":{"norad_id":57523,"intl_designator":"2023-115C","name":"STARLINK-30261","alt_names":[],"object_type":"PAYLOAD","status":"ACTIVE","operator":null,"country":"US","launch_date":"2023-08-08","launch_site_code":"AFWTR","launch_vehicle":null,"mission":null,"orbit_class":"UNKNOWN","rcs_meters":null,"size_class":null,"mass_kg":null,"dimensions":null,"purposes":["comms"],"wikipedia_slug":null,"has_3d_model":false,"image_url":null,"decayed_at":null,"tle_current":{"epoch":"2026-09-20T21:37:06.360384Z","epoch_age_seconds":93028,"freshness":"FRESH","line1":"1 57523U 23115C   26263.90076806  .00001351  00000+0  58611-4 0  9993","line2":"2 57523  43.0034 339.3728 0001729 263.6444  96.4210 15.27580750172205","mean_motion":15.2758075,"eccentricity":0.0001729,"inclination_deg":43.0034,"raan_deg":339.3728,"arg_perigee_deg":263.6444,"mean_anomaly_deg":96.421,"bstar":5.8611e-5,"rev_number":17220,"period_min":94.266702431279,"perigee_km":481.86055158305,"apogee_km":484.23314895847,"semimajor_km":6861.1838502708,"source":"CELESTRAK","updated_at":"2026-09-21T09:00:33.636994Z"}}}